Location: Spruce Knob
(38.6995°N, 79.5330°W)
Time: 19:49:23
(UTC-04:00)

A-11 Canister half - Pass Details

Date: 30 January 2022
Orbit: 1513 x 1686 km, 47.2° (Epoch: 26 May)

Event Time Altitude Azimuth Distance (km) Brightness Sun altitude
Rises 20:24:34 0° 297° (WNW) 4,706 12.5 -32.7°
Reaches altitude 10° 20:27:40 10° 300° (WNW) 3,705 11.7 -33.3°
Enters shadow 20:36:54 70° 20° (NNE) 1,595 8.8 -35.1°
Maximum altitude 20:36:58 70° 23° (NNE) 1,594 - -35.1°
Drops below altitude 10° 20:46:10 10° 107° (ESE) 3,671 - -36.9°
Sets 20:49:14 0° 110° (ESE) 4,661 - -37.5°
